SPACEBEE-73 (48635 NORAD) Tracking and Keplerian Element Data

This shows tracking and keplerian element data for the satellite.

Feedback or suggestion? Click here.




ElementValue
Catalog48635
NameSPACEBEE-73
Epoch Orbit2909
Epoch Day214.95686641
Epoch Year2021
RAAN272.6274
Inclination97.2541
Eccentricity0.0014921
Argument of Perigee292.5888
Mean Anonmoly67.3766
Mean Motion15.14626253
Decay Rate2.643E-05
L11 48635U 21006FB 21214.95686641 .00002643 00000-0 14614-3 0 9994
L22 48635 97.2541 272.6274 0014921 292.5888 67.3766 15.14626253 29095

Live tracking and technical data element details for SPACEBEE-73 (NORAD 48635). SPACEBEE-73 can be tracked NOW for your location showing map with azimuth and elevation plus other details from your city location.

Track the satellite on the map from your city or location and see movement details for azimuth, elevation, latitude, longitude, range, height, and movement on the map or in text.







IsCatalogInMostPopularTable: catalog: 48635, numindb: 19
Update: records affected: 1



GetName: 48635 SPACEBEE-73

Hit Count: updated at: Tue, 03 Aug 2021 21:47:57 GMT